This is the latest recevied weather packets stored in our database for station/object KAGO. If no packets are shown the sender has not sent any weather packets the latest 1 day(s).
| Time | Temp. | Humidity | Pressure | Rain* | Wind** | Luminosity | Snow |
|---|---|---|---|---|---|---|---|
| 1778102603 | 13.89° C | 82% | 1012.2 hPa | - | - | - | - |
| 1778097806 | 12.78° C | 87% | 1011.9 hPa | - | - | - | - |
| 1778097208 | 12.78° C | 87% | 1012.9 hPa | - | - | - | - |
| 1778096606 | 12.78° C | 87% | 1012.9 hPa | - | - | - | - |
| 1778094207 | 12.78° C | 87% | 1013.2 hPa | - | - | - | - |
| 1778090730 | 12.78° C | 93% | 1013.9 hPa | - | - | - | - |
| 1778089406 | 13.89° C | 87% | 1014.2 hPa | - | - | - | - |
| 1778088809 | 13.89° C | 87% | 1014.6 hPa | - | - | - | - |
| 1778087008 | 13.89° C | 87% | 1014.2 hPa | - | - | - | - |
| 1778085209 | 13.89° C | 87% | 1013.2 hPa | - | - | - | - |
| 1778084608 | 13.89° C | 87% | 1013.2 hPa | - | - | - | - |
| 1778084008 | 13.89° C | 87% | 1013.5 hPa | - | - | - | - |
| 1778082206 | 13.89° C | 87% | 1013.2 hPa | - | - | - | - |
| 1778081607 | 13.89° C | 87% | 1012.9 hPa | - | - | - | - |
| 1778081008 | 13.89° C | 87% | 1012.9 hPa | - | - | - | - |
| 1778078007 | 15° C | 87% | 1011.9 hPa | - | - | - | - |
| 1778077403 | 15° C | 87% | 1011.9 hPa | - | - | - | - |
| 1778075004 | 17.78° C | 88% | 1011.2 hPa | - | - | - | - |
| 1778072004 | 21.67° C | 94% | 1010.2 hPa | - | - | - | - |
| 1778070804 | 21.67° C | 94% | 1009.8 hPa | - | - | - | - |
| 1778067805 | 22.78° C | 94% | 1011.5 hPa | - | - | - | - |
| 1778066007 | 23.89° C | 88% | 1008.8 hPa | - | - | - | - |
| 1778064207 | 23.89° C | 83% | 1008.5 hPa | - | - | - | - |
| 1778063605 | 23.89° C | 83% | 1008.1 hPa | - | - | - | - |
| 1778063007 | 23.89° C | 83% | 1008.1 hPa | - | - | - | - |
* Rain since midnight (hover to see other rain measurements)
** Current wind speed in m/s (hover to see current wind gust speed)